Home > Weather > Trenton > Past weeks

Flag for USA Past Weather in Trenton, New Jersey, USA — Yesterday and Last 2 Weeks

Now
89 °F

Sunny.


Feels Like: 92 °F
Forecast: 71 / 93 °F
Wind: No wind

Location: Mercer County Airport

Current Time: Jul 28, 2016 at 12:30:35 PM

Latest Report: Jul 28, 2016 at 11:53 AM


Visibility: 10 mi

Pressure: 29.88 "Hg

Humidity: 48%

Dew Point: 67 °F

Location of TrentonLocation

Past Weather in Trenton — Graph

°F

Trenton Temperature Yesterday

Maximum temperature yesterday: 91 °F (at 4:53 PM)
Minimum temperature yesterday: 73 °F (at 2:53 AM)
Average temperature yesterday: 82 °F

High & Low Weather Summary for the Past Weeks

 TemperatureHumidityPressure
High96 °F (Jul 23, 3:53 PM)97% (Jul 25, 6:53 PM)30.22 "Hg (Jul 25, 6:53 PM)
Low65 °F (Jul 20, 5:53 AM)27% (Jul 23, 2:53 PM)29.76 "Hg (Jul 14, 5:53 PM)
Average80 °F66%29.96 "Hg
* Reported Jul 13 12:53 PM — Jul 28 10:53 AM, Trenton, Weather by CustomWeather, © 2016

Note: Actual official high and low records may vary slightly from our data, if they occured in-between our weather recording intervals... More about our weather records

Advertising

Trenton Weather History for the Previous 24 Hours

Scroll right to see more
 ConditionsComfort  
Time TempWeatherWind HumidityBarometerVisibility
10:53 AM
Thu, Jul 28
87 °FSunny.3 mph57%29.88 "Hg10 mi
9:53 AM84 °FSunny.No wind72%29.90 "Hg10 mi
8:53 AM80 °FSunny.No wind85%29.90 "Hg4 mi
7:53 AM73 °FFog.No wind97%29.90 "Hg0 mi
7:00 AM72 °FFog.No wind97%29.92 "Hg0 mi
6:53 AM72 °FFog.No wind97%29.90 "Hg1 mi
5:53 AM71 °FFog.No wind96%29.88 "Hg0 mi
5:00 AM72 °FFog.3 mph93%29.91 "Hg4 mi
4:53 AM72 °FClear.3 mph91%29.88 "Hg7 mi
3:53 AM73 °FClear.3 mph90%29.88 "Hg10 mi
2:53 AM77 °FClear.No wind88%29.88 "Hg7 mi
1:53 AM77 °FClear.No wind88%29.89 "Hg8 mi
12:53 AM78 °FClear.No wind84%29.89 "Hg10 mi
11:53 PM
Wed, Jul 27
78 °FClear.3 mph82%29.88 "Hg10 mi
10:53 PM80 °FClear.3 mph76%29.89 "Hg10 mi
9:53 PM82 °FPassing clouds.3 mph65%29.88 "Hg10 mi
8:53 PM83 °FSunny.No wind57%29.88 "Hg10 mi
7:53 PM88 °FSunny.3 mph43%29.87 "Hg10 mi
6:53 PM89 °FSunny.3 mph42%29.86 "Hg10 mi
5:53 PM89 °FSunny.No wind42%29.87 "Hg10 mi
4:53 PM91 °FSunny.3 mph38%29.88 "Hg10 mi
3:53 PM89 °FSunny.6 mph42%29.89 "Hg10 mi
2:53 PM89 °FSunny.3 mph42%29.90 "Hg10 mi
1:53 PM88 °FSunny.No wind45%29.91 "Hg10 mi
12:53 PM87 °FSunny.7 mph48%29.93 "Hg10 mi
Weather by CustomWeather, © 2016

See weather overviewHow to use our weather pages